COSMOS 1136

Satellite information

Favourite Embed

Satellite Type and Status

PAYLOADIN ORBIT

Key statistics

Satellite COSMOS 1136 at a glance.

Uptime

16836

Days in orbit

Revolutions

≈ 12.5

Per day

Orbit

LEO

Low Earth Orbit

Inclination

74.0

Latest

Satellite identification and parameters

Extended collection of information and parameters for COSMOS 1136.

Object identification

Identified? True

Debris? False

Object name: COSMOS 1136

International designator: 1979-084G

Object number (NORAD): 11544

Object ID (CCSDS): 11544

Country: COMMONWEALTH OF INDEPENDENT STATES (CIS)

Current information (Y/N): Y

RCS size: MEDIUM

Orbital parameters

Period: 115.634 minutes

Inclination: 74.021 deg

SMA: 7862.325 km

Apoapsis: 1496.706 km

Periapsis: 1471.675 km

RAAN: 110.141 deg

Eccentricy: 0.00159184

Argument of periapsis: 340.7618 deg

Mean anomaly: 93.4395 deg

Mean motion: 12.45306454 rev/day

Mean motion (dot): -0.00000007 rev/day2

B* drag term: 0.000061568965 1/REarth

Two-line elements (TLE)

Creation date: Oct. 28, 2025, 2:18 a.m.

Reference frame: TEME

Reference center: EARTH

Epoch: Oct. 27, 2025, 10:51 p.m. UTC

TLE line 0: 0 COSMOS 1136

TLE line 1: 1 11544U 79084G 25300.95217663 -.00000007 00000-0 61569-4 0 9991

TLE line 2: 2 11544 74.0210 110.1410 0015918 340.7618 93.4395 12.45306454 95205

Live tracking on map

Real-time ground track for satellite COSMOS 1136.

In-orbit conjunctions

A list of the most updated potential collisions computed for object COSMOS 1136.

Target Orbit TCA Probability of collision Miss distance Type
DELTA 1 DEB SSO 2025-04-03 17:00:51 0.0001286146 347.0 (m) DEBRIS

Associated space launch

Biological research satellite carrying live organisms

COSMOS 1136 was lifted into orbit during the mission ‘Soyuz U | Bion 5’, on board a Soyuz U space rocket.

The launch took place on Sept. 25, 1979, 3:30 p.m. from 41/1.

For more information about the launch, click the button.

Launch to space Soyuz U | Bion 5
Soyuz U | Bion 5

Agency: N/A

Status: Launch Successful

Launch date: Sept. 25, 1979, 3:30 p.m. UTC

Rocket: Soyuz U

Launch pad: 41/1

Location: Plesetsk Cosmodrome, Russian Federation

...

Latest news about this satellite

There are no fresh news available about this satellite. Check back as we update our databases every day.


Newsletter sign-up

Weekly statistics, charts and insights to help you stay on top of the space industry.